Location: Turtle Rock Observatory
(36.6913°N, 81.9708°W)
Time: 07:05:22
(UTC-04:00)

Daily predictions for brighter satellites

Satellite Brightness Start Highest point End
(mag) Time Altitude Azimuth Time Altitude Azimuth Time Altitude Azimuth
BREEZE-M DEB (TANK) 4.5 18:56:53 10° NW 19:00:45 34° NE 19:12:37 10° E
Ariane Rocket 3.8 19:09:37 10° S 19:14:37 58° W 19:19:39 10° NNW
CORIOLIS 4.3 19:10:00 10° SSE 19:15:23 86° WSW 19:20:49 10° NNW
FENGYUN 3A 4.5 19:12:09 10° SE 19:16:43 29° ENE 19:21:19 10° N
Cosmos 44 3.9 19:14:19 10° S 19:18:08 29° ESE 19:21:53 10° NE
Cosmos 1315 Rocket 3.8 19:14:50 10° NNE 19:18:22 27° ENE 19:21:54 10° SE
Meteor 2-1 Rocket 4.4 19:14:36 10° S 19:20:14 59° E 19:26:01 10° NNE
EO 1 Del DPAF 3.2 19:18:27 10° NNE 19:22:19 80° ESE 19:26:08 10° S
Cosmos 2218 Rocket 4.2 19:16:53 10° S 19:23:01 78° W 19:29:11 10° N
YAOGAN 1 2.5 19:18:53 10° SSE 19:23:12 81° ENE 19:27:32 10° N
Cosmos 2322 4.1 19:20:04 10° N 19:25:31 44° ENE 19:30:55 10° SE
Tiangong 1 3.6 19:24:56 10° WSW 19:26:38 15° SW 19:28:18 10° S
SMAP 4.1 19:22:12 10° S 19:26:43 51° W 19:31:15 10° NNW
Meteor 1-11 4.4 19:22:44 10° N 19:28:33 83° W 19:34:14 10° S
USA 267 4.3 19:25:35 10° ENE 19:30:50 25° ESE 19:36:03 10° S
Cosmos 2056 Rocket 4.2 19:26:07 10° NNW 19:31:19 60° WSW 19:36:25 10° S
Cosmos 2151 2.9 19:28:26 10° N 19:32:42 70° E 19:36:55 10° SSE
SPOT 3 Rocket 3.6 19:28:09 10° SSE 19:33:15 60° ENE 19:38:23 10° N
ERS-2 3.2 19:30:05 10° S 19:33:40 50° W 19:37:17 10° NNW
Cosmos 1339 Rocket 4.5 19:27:21 10° N 19:33:43 81° E 19:39:56 10° S
Cosmos 1727 Rocket 4.0 19:29:04 10° N 19:35:28 81° E 19:41:47 10° S
CZ-3 Stage 3 2.1 19:34:20 10° SW 19:35:35 16° S 19:36:48 10° SE
ASTRO E2 3.7 19:34:46 10° WSW 19:38:30 38° S 19:41:35 14° ESE
Cosmos 468 4.4 19:33:56 10° S 19:39:05 67° ESE 19:44:17 10° NNE
GRACE-2 3.5 19:37:13 10° S 19:39:45 63° E 19:42:18 10° N
RESURS DK-1 2.3 19:36:53 10° NNW 19:41:00 65° ENE 19:45:04 10° SSE
Cosmos 2219 Rocket 3.5 19:37:02 10° N 19:41:07 20° NE 19:43:15 17° E
Cosmos 44 Rocket 3.3 19:37:02 10° SSW 19:41:36 52° ESE 19:46:10 10° NE
GRACE-1 3.5 19:40:30 10° S 19:43:04 78° E 19:45:39 10° N
GP-B 3.6 19:38:59 10° N 19:43:24 65° W 19:47:46 10° SSW
Cosmos 1726 2.8 19:44:02 10° SSE 19:47:19 31° E 19:50:38 10° NNE
Cosmos 2098 Rocket 3.6 19:44:01 10° SSE 19:48:00 41° E 19:53:02 10° NNE
Cosmos 1452 Rocket 3.4 19:43:46 10° NNW 19:49:02 76° ENE 19:54:16 10° SSE
Cosmos 1703 3.6 19:46:09 10° NNW 19:50:03 66° W 19:53:54 10° S
SKYMED 2 4.1 19:46:12 10° N 19:50:30 61° WNW 19:54:46 10° SSW
Atlas Centaur 2 2.9 19:46:28 10° WSW 19:50:41 37° S 19:54:54 14° SE
Cosmos 2058 3.2 19:46:33 10° NNW 19:50:43 71° W 19:54:48 10° S
BREEZE-M DEB (TANK) 1.2 19:51:43 10° WNW 19:53:41 65° SW 19:54:39 27° SE
FALCON 9 R/B 3.6 19:53:10 10° SSW 19:53:59 11° SSW 19:54:54 10° S
Delta 2 Rocket 2.9 19:50:47 10° W 19:54:33 76° S 19:56:09 30° E
SL-16 R/B 4.3 19:51:39 10° NW 19:56:29 30° WSW 20:01:19 10° SSW
Cosmos 2221 2.4 19:53:44 10° S 19:58:02 83° E 20:02:24 10° N
Aureole 2 Rocket 4.2 19:55:54 10° NNE 19:58:14 21° NE 19:58:14 21° NE
Cosmos 1908 3.5 19:56:11 10° SSW 20:00:05 70° W 20:04:00 10° N
CZ-4C R/B 2.0 19:57:57 10° SSW 20:02:58 68° ESE 20:08:29 11° NE
Cosmos 2237 4.1 19:58:17 10° NNW 20:04:02 76° ENE 20:09:44 10° SSE
NOAA 12 4.1 19:59:35 10° SSE 20:04:53 89° WSW 20:10:14 10° NNW
SL-24 R/B - RUBIN 2 3.7 20:01:07 10° NNW 20:05:52 77° WSW 20:10:12 10° SSE
BREEZE-M DEB (TANK) 4.4 20:05:52 10° NW 20:06:31 11° NNW 20:07:10 10° N
Cosmos 921 Rocket 3.2 20:04:09 10° NNW 20:08:35 75° WSW 20:12:55 10° S
H-2A R/B 3.0 20:07:33 32° ESE 20:08:45 44° ENE 20:12:29 10° N
Iridium 4 Rocket 3.6 20:04:53 10° S 20:10:20 85° E 20:16:12 10° N
BREEZE-M R/B 3.1 20:08:55 10° SSW 20:10:41 31° SSE 20:10:41 31° SSE
Cosmos 2237 Rocket 3.6 20:09:39 10° N 20:13:12 20° NE 20:13:12 20° NE
DELTA 2 R/B (1) 3.5 20:11:07 10° WNW 20:16:44 90° NNE 20:19:09 36° ESE
Cosmos 2227 Rocket 3.3 20:14:16 10° SSE 20:17:28 25° SE 20:17:28 25° SE
Resurs 01 Rocket 3.9 20:23:46 12° NNE 20:23:46 12° NNE 20:24:07 10° NNE
ALOS 2.9 20:19:02 10° S 20:23:37 58° W 20:28:14 10° NNW
Cosmos 1048 Rocket 4.4 20:19:38 10° SSW 20:24:43 63° WNW 20:29:49 10° N
Cosmos 1300 3.0 20:28:31 10° S 20:31:27 51° S 20:31:27 51° S
Cosmos 1535 Rocket 4.5 20:28:33 10° S 20:34:41 81° W 20:40:49 10° N
Cosmos 2360 Rocket 3.8 20:31:30 10° NW 20:36:35 35° WSW 20:41:39 10° SSW
Meteor 2-2 Rocket 4.2 20:31:02 10° S 20:36:38 59° E 20:42:11 10° NNE
NOSS 0 Rocket 4.2 20:31:53 10° N 20:37:47 45° ENE 20:37:56 45° ENE
Thor Agena Rocket 4.0 20:33:35 10° N 20:38:35 59° WNW 20:43:31 10° SSW
Hubble Space Telescope 3.2 20:37:50 10° SSW 20:38:43 13° S 20:38:43 13° S
COSMOS 2428 2.7 20:34:44 10° NNW 20:40:26 80° WSW 20:44:03 23° SSE
Cosmos 2333 Rocket 2.3 20:38:05 10° NNW 20:43:38 55° ENE 20:43:38 55° ENE
Sich 1 3.1 20:40:38 10° N 20:44:35 72° N 20:44:35 72° N
Cosmos 2219 3.9 20:39:52 10° SW 20:45:29 55° WNW 20:51:08 10° NNE
BREEZE-M DEB (TANK) 4.1 20:44:30 10° WNW 20:51:30 31° N 20:52:04 30° N
Cosmos 2297 Rocket 3.9 20:51:15 10° S 20:52:50 19° S 20:52:50 19° S
Centaur D AC-29 2.9 20:53:18 10° WSW 20:58:59 25° SSW 20:59:13 25° SSW
Cosmos 1666 Rocket 4.5 20:58:56 10° NNW 21:02:14 45° NW 21:02:14 45° NW
USA 267 3.3 21:12:42 56° NNE 21:14:09 76° NW 21:20:40 10° SW
MOS 1-B Rocket 3.9 21:16:00 74° NW 21:16:00 74° NW 21:21:34 10° NNW
Cosmos 2219 Rocket 2.8 21:19:57 10° NNW 21:25:02 52° W 21:25:02 52° W
Atlas Centaur 2 4.1 21:35:08 10° WSW 21:37:32 20° SW 21:37:32 20° SW
CZ-4C R/B 4.4 21:48:18 10° W 21:52:08 19° NW 21:53:45 17° NNW
Cosmos 2237 Rocket 4.1 21:52:40 10° NNW 21:55:03 25° NW 21:55:03 25° NW
Cosmos 2227 Rocket 4.4 21:57:49 10° SW 21:59:25 18° WSW 21:59:25 18° WSW
